period_start,C,m1,H,J0,J1,J2,J3,J4,J5,JA,JB,JC,JD,JJ,JK,JN,#
2017-12-04 03:48:35,0.00,0.00,0.00,-11.14,-12.35,-12.09,15.30,44.31,1021.83,2170.30,3747.53,3336.20,3825.64,594.89,671.39,0.01,0000 0000 0000 0000 000000
2017-12-04 03:53:36,0.01,0.00,0.00,-10.24,-12.44,-10.43,15.50,44.82,1022.00,2169.30,3739.64,3331.40,3820.90,599.94,674.90,0.06,0000 0000 0000 0000 000000
2017-12-04 03:58:37,0.04,0.01,0.00,-9.53,-12.48,-9.41,15.33,44.73,1022.25,2170.55,3736.92,3330.14,3818.46,600.09,673.45,0.11,0000 0000 0000 0000 000000
2017-12-04 04:03:39,0.07,0.02,0.00,-8.87,-12.46,-9.06,15.33,44.87,1022.48,2171.22,3734.56,3329.30,3816.19,600.19,672.05,0.16,0000 0000 0000 0000 000000
2017-12-04 04:08:40,0.11,0.03,0.00,-8.30,-12.38,-8.63,15.28,44.83,1022.48,2171.92,3732.63,3328.36,3813.90,600.36,670.75,0.21,0000 0000 0000 0000 000000
2017-12-04 04:13:41,0.06,0.03,0.00,-8.00,-12.26,-8.18,15.35,45.13,1022.57,2171.52,3730.64,3327.60,3811.62,600.14,669.81,0.26,0000 0000 0000 0000 000000
2017-12-04 04:18:43,0.08,0.03,0.00,-8.09,-12.09,-7.74,15.18,45.23,1022.80,2171.05,3728.32,3325.83,3809.11,599.68,669.70,0.31,0000 0000 0000 0000 000000
2017-12-04 04:23:44,0.11,0.04,0.00,-7.93,-11.89,-7.31,15.43,45.43,1022.91,2170.98,3725.70,3324.05,3806.52,600.01,669.65,0.36,0000 0000 0000 0000 000000
2017-12-04 04:28:45,0.05,0.04,0.00,-7.58,-11.66,-6.96,15.33,45.40,1022.96,2170.29,3722.52,3322.15,3803.37,599.88,668.72,0.41,0000 0000 0000 0000 000000
2017-12-04 04:33:47,0.09,0.05,0.00,-7.25,-11.40,-6.56,15.28,45.44,1022.96,2169.79,3719.56,3320.15,3800.35,599.93,667.80,0.46,0000 0000 0000 0000 000000
2017-12-04 04:38:48,0.09,0.05,0.00,-6.95,-11.11,-6.14,15.35,45.41,1022.99,2169.01,3716.32,3318.04,3797.04,600.04,667.28,0.51,0000 0000 0000 0000 000000
2017-12-04 04:43:50,0.06,0.05,0.00,-6.66,-10.81,-5.72,15.27,45.33,1023.29,2168.15,3712.96,3315.87,3793.68,599.73,666.47,0.56,0000 0000 0000 0000 000000
2017-12-04 04:48:51,0.07,0.06,0.00,-6.35,-10.49,-5.29,15.25,45.46,1023.45,2167.35,3709.61,3313.62,3790.23,599.96,666.02,0.61,0000 0000 0000 0000 000000
2017-12-04 04:53:53,0.09,0.06,0.00,-6.05,-10.17,-4.87,15.31,45.58,1023.45,2166.56,3706.06,3311.22,3786.54,599.93,665.26,0.66,0000 0000 0000 0000 000000
2017-12-04 04:58:55,0.08,0.07,0.00,-5.79,-9.83,-4.47,15.29,45.48,1023.45,2165.72,3702.73,3308.86,3783.06,600.26,664.97,0.71,0000 0000 0000 0000 000000
2017-12-04 05:03:56,0.06,0.07,0.00,-5.52,-9.49,-4.08,15.23,45.42,1023.49,2164.74,3699.55,3306.60,3779.64,599.89,663.96,0.76,0000 0000 0000 0000 000000
2017-12-04 05:08:57,0.05,0.07,0.00,-5.25,-9.14,-3.67,15.25,45.38,1023.71,2163.74,3696.51,3304.39,3776.28,599.95,663.30,0.81,0000 0000 0000 0000 000000
2017-12-04 05:13:58,0.06,0.08,0.00,-5.03,-8.79,-3.32,15.31,45.42,1023.88,2162.67,3693.32,3302.06,3773.02,600.30,663.53,0.86,0000 0000 0000 0000 000000
2017-12-04 05:19:00,0.04,0.08,0.00,-4.84,-8.46,-2.98,15.24,45.44,1023.93,2161.52,3690.25,3299.78,3769.68,600.18,662.84,0.91,0000 0000 0000 0000 000000
2017-12-04 05:24:01,0.06,0.08,0.00,-4.61,-8.12,-2.64,15.25,45.31,1023.94,2160.49,3686.94,3297.39,3766.35,600.10,662.19,0.96,0000 0000 0000 0000 000000
2017-12-04 05:29:02,0.07,0.09,0.00,-4.43,-7.78,-2.32,15.25,45.23,1023.94,2159.55,3683.64,3295.08,3763.10,599.79,661.43,1.02,0000 0000 0000 0000 000000
2017-12-04 05:34:04,0.06,0.09,0.00,-4.27,-7.45,-2.02,15.21,45.28,1023.94,2158.56,3680.27,3292.68,3759.68,599.68,660.90,1.07,0000 0000 0000 0000 000000
2017-12-04 05:39:05,0.08,0.09,0.00,-4.07,-7.13,-1.75,15.16,45.12,1023.97,2157.56,3676.67,3290.22,3756.22,599.65,660.39,1.12,0000 0000 0000 0000 000000
2017-12-04 05:44:07,0.07,0.10,0.00,-3.92,-6.81,-1.48,15.24,45.20,1024.01,2156.64,3673.25,3287.75,3752.76,599.64,660.10,1.17,0000 0000 0000 0000 000000
2017-12-04 05:49:08,0.09,0.10,0.00,-3.77,-6.50,-1.22,15.25,45.20,1024.23,2155.73,3669.64,3285.24,3749.21,600.41,660.73,1.22,0000 0000 0000 0000 000000
2017-12-04 05:54:10,0.07,0.11,0.00,-3.62,-6.20,-0.97,15.26,45.26,1024.32,2154.81,3666.34,3282.90,3745.82,600.30,660.22,1.27,0000 0000 0000 0000 000000
2017-12-04 05:59:11,0.06,0.11,0.00,-3.48,-5.90,-0.71,15.17,45.12,1024.40,2153.83,3663.11,3280.61,3742.51,599.64,659.39,1.32,0000 0000 0000 0000 000000
2017-12-04 06:04:12,0.08,0.11,0.00,-3.34,-5.61,-0.47,15.32,45.20,1024.42,2152.98,3659.98,3278.42,3739.41,600.18,659.51,1.37,0000 0000 0000 0000 000000
2017-12-04 06:09:14,0.06,0.11,0.00,-3.21,-5.33,-0.21,15.27,45.25,1024.43,2152.11,3656.92,3276.24,3736.28,599.71,658.76,1.42,0000 0000 0000 0000 000000
2017-12-04 06:14:15,0.05,0.12,0.00,-3.10,-5.06,0.04,15.13,45.16,1024.43,2151.15,3654.18,3274.14,3733.26,599.81,658.47,1.47,0000 0000 0000 0000 000000
2017-12-04 06:19:16,0.05,0.12,0.00,-2.96,-4.80,0.31,15.24,45.24,1024.43,2150.27,3651.25,3272.18,3730.34,599.86,658.20,1.52,0000 0000 0000 0000 000000
2017-12-04 06:24:17,0.07,0.12,0.00,-2.86,-4.54,0.53,15.16,45.11,1024.43,2149.22,3648.05,3269.75,3727.01,600.20,658.25,1.57,0000 0000 0000 0000 000000
2017-12-04 06:29:19,0.06,0.13,0.00,-2.76,-4.29,0.74,15.24,45.22,1024.43,2147.96,3644.60,3267.15,3723.49,600.03,657.76,1.62,0000 0000 0000 0000 000000
2017-12-04 06:34:20,0.06,0.13,0.00,-2.64,-4.05,0.95,15.17,45.11,1024.43,2147.04,3641.49,3264.95,3720.48,599.74,657.28,1.67,0000 0000 0000 0000 000000
2017-12-04 06:39:22,0.04,0.13,0.00,-2.54,-3.82,1.15,15.24,45.20,1024.46,2146.25,3638.71,3263.13,3717.75,600.47,657.82,1.72,0000 0000 0000 0000 000000
2017-12-04 06:44:23,0.05,0.14,0.00,-2.42,-3.59,1.35,15.25,45.19,1024.53,2145.51,3635.75,3261.33,3715.04,600.22,657.24,1.77,0000 0000 0000 0000 000000
2017-12-04 06:49:24,0.09,0.14,0.00,-2.34,-3.37,1.52,15.35,45.18,1024.51,2144.81,3632.78,3259.37,3712.14,600.16,657.10,1.82,0000 0000 0000 0000 000000
2017-12-04 06:54:26,0.06,0.14,0.00,-2.23,-3.16,1.69,15.32,45.26,1024.52,2143.83,3629.65,3257.14,3708.98,600.21,656.88,1.87,0000 0000 0000 0000 000000
2017-12-04 06:59:27,0.06,0.14,0.00,-2.12,-2.95,1.81,15.28,45.13,1024.49,2143.03,3626.84,3255.21,3706.29,600.09,656.46,1.92,0000 0000 0000 0000 000000
2017-12-04 07:04:28,0.03,0.15,0.00,-2.03,-2.74,1.94,15.19,45.01,1024.66,2142.26,3624.29,3253.41,3703.71,600.05,656.40,1.97,0000 0000 0000 0000 000000
2017-12-04 07:09:30,0.07,0.15,0.00,-1.92,-2.54,2.06,15.26,45.13,1024.62,2141.72,3621.78,3251.71,3701.23,600.07,656.19,2.02,0000 0000 0000 0000 000000
2017-12-04 07:14:31,0.05,0.15,0.00,-1.81,-2.35,2.17,15.21,45.11,1024.63,2141.02,3619.42,3250.19,3698.78,600.14,655.83,2.07,0000 0000 0000 0000 000000
2017-12-04 07:19:32,0.03,0.16,0.00,-1.75,-2.17,2.27,15.18,45.16,1024.73,2140.38,3617.09,3248.61,3696.43,599.93,655.47,2.12,0000 0000 0000 0000 000000
2017-12-04 07:24:34,0.09,0.16,0.00,-1.64,-1.98,2.33,15.11,45.11,1024.66,2139.89,3614.62,3247.06,3693.98,599.65,655.01,2.17,0000 0000 0000 0000 000000
2017-12-04 07:29:35,0.05,0.16,0.00,-1.55,-1.81,2.39,15.20,45.21,1024.55,2139.10,3612.09,3245.15,3691.33,599.92,654.91,2.22,0000 0000 0000 0000 000000
2017-12-04 07:34:36,0.06,0.17,0.00,-1.47,-1.64,2.48,15.14,45.17,1024.49,2138.65,3609.55,3243.51,3688.74,599.98,654.75,2.27,0000 0000 0000 0000 000000
2017-12-04 07:39:38,0.08,0.17,0.00,-1.37,-1.47,2.59,15.14,45.17,1024.44,2138.01,3607.05,3241.72,3686.28,599.85,654.28,2.32,0000 0000 0000 0000 000000
2017-12-04 07:44:39,0.02,0.17,0.00,-1.26,-1.30,2.70,15.08,45.11,1024.44,2137.28,3604.56,3240.13,3683.93,599.98,654.25,2.37,0000 0000 0000 0000 000000
2017-12-04 07:49:41,0.08,0.17,0.00,-1.18,-1.14,2.82,15.14,45.08,1024.45,2136.88,3602.28,3238.58,3681.60,599.99,654.04,2.42,0000 0000 0000 0000 000000
2017-12-04 07:54:42,0.02,0.18,0.00,-1.09,-0.99,2.93,15.13,45.10,1024.48,2136.15,3600.09,3237.02,3679.59,599.95,653.82,2.47,0000 0000 0000 0000 000000
2017-12-04 07:59:44,0.07,0.18,0.00,-1.02,-0.84,3.02,15.13,45.13,1024.45,2135.92,3598.24,3235.65,3677.70,599.86,653.58,2.52,0000 0000 0000 0000 000000
2017-12-04 08:04:45,0.01,0.18,0.00,-0.95,-0.69,3.14,15.18,45.12,1024.46,2135.18,3596.42,3234.43,3675.92,600.26,653.79,2.57,0000 0000 0000 0000 000000
2017-12-04 08:09:46,0.06,0.18,0.00,-0.87,-0.55,3.26,15.18,45.02,1024.46,2134.95,3594.63,3233.09,3674.19,600.23,653.57,2.62,0000 0000 0000 0000 000000
2017-12-04 08:14:47,0.01,0.19,0.00,-0.77,-0.41,3.37,15.24,45.12,1024.47,2134.21,3592.91,3231.80,3672.53,599.84,653.08,2.67,0000 0000 0000 0000 000000
2017-12-04 08:19:49,0.07,0.19,0.00,-0.70,-0.27,3.48,15.03,45.10,1024.44,2133.96,3591.15,3230.52,3670.78,600.02,652.73,2.72,0000 0000 0000 0000 000000
2017-12-04 08:24:50,-0.00,0.19,0.00,-0.61,-0.14,3.61,15.13,44.98,1024.45,2133.23,3589.24,3229.26,3669.09,599.95,652.65,2.77,0000 0000 0000 0000 000000
2017-12-04 08:29:51,0.07,0.19,0.00,-0.53,-0.01,3.71,15.14,45.04,1024.45,2132.99,3587.39,3227.94,3667.38,600.01,652.50,2.82,0000 0000 0000 0000 000000
2017-12-04 08:34:52,0.03,0.20,0.00,-0.46,0.11,3.80,15.16,45.03,1024.44,2132.54,3585.48,3226.58,3665.55,600.11,652.48,2.87,0000 0000 0000 0000 000000
2017-12-04 08:39:54,0.06,0.20,0.00,-0.38,0.24,3.92,15.15,44.98,1024.43,2132.03,3583.63,3225.24,3663.78,599.94,652.12,2.92,0000 0000 0000 0000 000000
2017-12-04 08:44:55,0.05,0.20,0.00,-0.31,0.36,4.04,15.08,44.98,1024.43,2131.78,3581.76,3223.84,3661.92,599.66,651.56,2.97,0000 0000 0000 0000 000000
2017-12-04 08:49:56,0.07,0.20,0.00,-0.22,0.48,4.14,15.19,44.93,1024.43,2131.11,3579.06,3222.13,3659.75,599.90,651.48,3.02,0000 0000 0000 0000 000000
2017-12-04 08:54:57,0.28,0.21,0.00,-0.16,0.60,4.25,15.22,45.07,1024.43,2130.98,3572.99,3218.36,3655.43,600.44,651.94,3.07,0000 0000 0000 0000 000000
2017-12-04 08:59:59,0.21,0.23,0.00,-0.09,0.72,4.34,15.14,44.89,1024.43,2130.40,3565.54,3213.79,3650.20,600.10,651.53,3.12,0000 0000 0000 0000 000000
2017-12-04 09:05:00,0.18,0.24,0.00,-0.00,0.83,4.45,15.11,44.92,1024.43,2130.01,3560.49,3210.62,3646.61,600.00,651.21,3.17,0000 0000 0000 0000 000000
2017-12-04 09:10:02,0.20,0.25,0.00,0.07,0.94,4.54,15.09,44.81,1024.43,2129.88,3555.19,3207.30,3642.84,599.99,651.00,3.22,0000 0000 0000 0000 000000
2017-12-04 09:15:03,0.10,0.25,0.00,0.14,1.04,4.66,15.08,45.03,1024.43,2129.25,3550.22,3204.25,3639.36,599.62,650.40,3.28,0000 0000 0000 0000 000000
2017-12-04 09:20:05,0.05,0.26,0.00,0.22,1.15,4.76,15.15,44.90,1024.43,2129.01,3548.55,3203.03,3637.88,600.02,650.73,3.33,0000 0000 0000 0000 000000
2017-12-04 09:25:06,0.05,0.26,0.00,0.28,1.25,4.85,15.14,45.00,1024.43,2128.95,3547.24,3202.03,3636.71,599.93,650.45,3.38,0000 0000 0000 0000 000000
2017-12-04 09:30:08,-0.01,0.26,0.00,0.37,1.36,4.93,15.16,44.94,1024.43,2128.36,3546.07,3201.08,3635.57,600.46,650.70,3.43,0000 0000 0000 0000 000000
2017-12-04 09:35:09,0.03,0.26,0.00,0.43,1.46,5.02,15.08,44.85,1024.43,2128.02,3545.13,3200.33,3634.70,599.98,650.13,3.48,0000 0000 0000 0000 000000
2017-12-04 09:40:10,0.04,0.26,0.00,0.51,1.56,5.12,15.13,44.90,1024.43,2127.95,3544.29,3199.64,3633.74,600.35,650.36,3.53,0000 0000 0000 0000 000000
2017-12-04 09:45:11,-0.03,0.26,0.00,0.58,1.66,5.22,15.06,44.85,1024.43,2127.41,3543.55,3198.95,3632.84,599.83,649.55,3.58,0000 0000 0000 0000 000000
2017-12-04 09:50:13,0.05,0.26,0.00,0.64,1.76,5.29,15.13,44.98,1024.44,2127.00,3542.09,3197.95,3631.47,600.07,649.71,3.63,0000 0000 0000 0000 000000
2017-12-04 09:55:14,0.05,0.27,0.00,0.71,1.86,5.40,15.09,44.92,1024.44,2126.78,3540.46,3196.79,3629.89,599.90,649.55,3.68,0000 0000 0000 0000 000000
2017-12-04 10:00:16,0.03,0.27,0.00,0.79,1.96,5.50,15.09,44.96,1024.43,2126.08,3538.64,3195.62,3628.40,600.04,649.31,3.73,0000 0000 0000 0000 000000
2017-12-04 10:05:17,0.05,0.27,0.00,0.85,2.05,5.58,15.10,44.88,1024.44,2125.99,3537.22,3194.59,3627.11,599.97,649.20,3.78,0000 0000 0000 0000 000000
2017-12-04 10:10:18,0.02,0.27,0.00,0.91,2.15,5.67,15.07,44.90,1024.44,2125.86,3536.06,3193.83,3626.09,599.99,649.05,3.83,0000 0000 0000 0000 000000
2017-12-04 10:15:19,-0.02,0.27,0.00,1.00,2.24,5.76,15.02,45.07,1024.43,2125.20,3535.30,3193.05,3625.35,599.80,648.47,3.88,0000 0000 0000 0000 000000
2017-12-04 10:20:21,0.04,0.27,0.00,1.06,2.33,5.85,15.12,44.86,1024.43,2125.00,3534.59,3192.38,3624.55,600.34,649.04,3.93,0000 0000 0000 0000 000000
2017-12-04 10:25:22,0.00,0.27,0.00,1.13,2.42,5.94,15.10,44.99,1024.43,2124.96,3533.95,3191.96,3623.90,599.98,648.48,3.98,0000 0000 0000 0000 000000
2017-12-04 10:30:23,-0.01,0.28,0.00,1.22,2.51,6.05,15.05,44.99,1024.43,2124.43,3533.14,3191.19,3623.10,600.14,648.35,4.03,0000 0000 0000 0000 000000
2017-12-04 10:35:24,0.02,0.27,0.00,1.28,2.59,6.11,15.01,44.88,1024.43,2124.02,3532.67,3190.76,3622.33,599.64,647.81,4.08,0000 0000 0000 0000 000000
2017-12-04 10:40:26,0.02,0.28,0.00,1.34,2.68,6.20,14.96,44.81,1024.42,2123.95,3531.97,3190.04,3621.54,599.86,647.85,4.13,0000 0000 0000 0000 000000
2017-12-04 10:45:27,-0.01,0.28,0.00,1.43,2.77,6.28,15.05,44.99,1024.41,2123.47,3531.18,3189.36,3620.61,599.89,647.82,4.18,0000 0000 0000 0000 000000
2017-12-04 10:50:28,0.00,0.28,0.00,1.51,2.85,6.36,15.08,45.02,1024.43,2123.03,3530.37,3188.90,3619.91,599.91,647.42,4.23,0000 0000 0000 0000 000000
2017-12-04 10:55:29,0.03,0.28,0.00,1.58,2.93,6.43,15.09,44.98,1024.43,2122.99,3529.88,3188.14,3619.11,600.45,648.02,4.28,0000 0000 0000 0000 000000
2017-12-04 11:00:31,-0.00,0.28,0.00,1.65,3.02,6.54,15.02,45.01,1024.43,2122.74,3529.05,3187.77,3618.34,600.10,647.38,4.33,0000 0000 0000 0000 000000
2017-12-04 11:05:32,-0.01,0.28,0.00,1.73,3.10,6.59,14.99,44.89,1024.43,2122.11,3528.22,3187.04,3617.64,599.69,646.85,4.38,0000 0000 0000 0000 000000
2017-12-04 11:10:33,0.04,0.28,0.00,1.80,3.18,6.68,15.05,44.90,1024.43,2122.00,3527.48,3186.43,3616.85,599.85,646.68,4.43,0000 0000 0000 0000 000000
2017-12-04 11:15:34,0.02,0.28,0.00,1.89,3.26,6.76,14.98,44.70,1024.43,2121.93,3526.70,3185.93,3616.01,600.15,646.88,4.48,0000 0000 0000 0000 000000
2017-12-04 11:20:35,-0.02,0.28,0.00,1.95,3.34,6.85,15.01,44.75,1024.43,2121.34,3525.99,3185.11,3615.14,600.02,646.52,4.53,0000 0000 0000 0000 000000
2017-12-04 11:25:37,0.02,0.28,0.00,2.02,3.42,6.94,15.03,44.74,1024.43,2121.01,3525.14,3184.62,3614.28,600.29,646.75,4.58,0000 0000 0000 0000 000000
2017-12-04 11:30:38,0.03,0.28,0.00,2.08,3.51,7.01,15.01,44.73,1024.43,2120.98,3524.34,3184.01,3613.51,599.80,645.99,4.63,0000 0000 0000 0000 000000
2017-12-04 11:35:40,-0.00,0.28,0.00,2.16,3.59,7.08,15.00,44.71,1024.43,2120.67,3523.62,3183.35,3612.67,599.97,646.06,4.68,0000 0000 0000 0000 000000
2017-12-04 11:40:41,-0.02,0.28,0.00,2.21,3.67,7.16,15.03,44.69,1024.43,2120.06,3522.89,3182.86,3611.96,600.04,646.02,4.73,0000 0000 0000 0000 000000
2017-12-04 11:45:43,0.04,0.28,0.00,2.26,3.74,7.25,14.98,44.70,1024.43,2120.00,3522.08,3182.07,3611.12,599.90,645.84,4.78,0000 0000 0000 0000 000000
2017-12-04 11:50:44,0.03,0.29,0.00,2.33,3.82,7.34,14.94,44.72,1024.43,2119.89,3521.27,3181.49,3610.30,600.25,646.03,4.83,0000 0000 0000 0000 000000
2017-12-04 11:55:46,-0.02,0.29,0.00,2.39,3.90,7.41,15.02,44.77,1024.43,2119.35,3520.67,3180.97,3609.62,600.04,645.58,4.88,0000 0000 0000 0000 000000
2017-12-04 12:00:47,0.02,0.29,0.00,2.46,3.98,7.50,15.03,44.69,1024.43,2119.03,3519.99,3180.19,3608.85,599.98,645.25,4.93,0000 0000 0000 0000 000000
2017-12-04 12:05:48,0.03,0.29,0.00,2.51,4.05,7.57,15.02,44.76,1024.44,2119.00,3519.19,3179.82,3608.06,600.22,645.37,4.98,0000 0000 0000 0000 000000
2017-12-04 12:10:49,0.01,0.29,0.00,2.58,4.13,7.65,15.04,44.72,1024.49,2118.79,3518.64,3179.06,3607.26,600.07,645.14,5.03,0000 0000 0000 0000 000000
2017-12-04 12:15:51,-0.01,0.29,0.00,2.64,4.19,7.73,15.02,44.73,1024.64,2118.11,3517.91,3178.48,3606.49,600.20,645.29,5.08,0000 0000 0000 0000 000000
2017-12-04 12:20:53,0.02,0.29,0.00,2.72,4.27,7.80,15.01,44.73,1024.83,2118.01,3517.08,3178.00,3605.90,600.08,645.28,5.13,0000 0000 0000 0000 000000
2017-12-04 12:25:54,0.04,0.29,0.00,2.79,4.34,7.88,14.94,44.63,1024.90,2117.98,3516.45,3177.33,3605.08,599.82,644.66,5.18,0000 0000 0000 0000 000000
2017-12-04 12:30:55,0.00,0.29,0.00,2.85,4.42,7.94,15.04,44.73,1024.90,2117.79,3515.82,3176.90,3604.25,600.27,645.05,5.23,0000 0000 0000 0000 000000
2017-12-04 12:35:57,-0.01,0.29,0.00,2.91,4.49,8.01,14.99,44.64,1024.90,2117.17,3515.02,3176.13,3603.69,599.79,644.46,5.28,0000 0000 0000 0000 000000
2017-12-04 12:40:58,0.02,0.29,0.00,2.96,4.56,8.09,15.02,44.63,1024.90,2117.01,3514.23,3175.83,3602.97,600.21,644.78,5.33,0000 0000 0000 0000 000000
2017-12-04 12:45:59,0.03,0.29,0.00,3.03,4.63,8.14,15.01,44.73,1024.92,2116.95,3513.64,3175.05,3602.13,599.95,644.18,5.38,0000 0000 0000 0000 000000
2017-12-04 12:51:01,-0.01,0.29,0.00,3.09,4.70,8.22,14.95,44.77,1024.92,2116.64,3512.99,3174.58,3601.43,599.91,644.12,5.43,0000 0000 0000 0000 000000
2017-12-04 12:56:02,-0.01,0.29,0.00,3.16,4.77,8.30,14.96,44.76,1024.93,2116.08,3512.24,3174.02,3600.84,599.83,643.78,5.48,0000 0000 0000 0000 000000
2017-12-04 13:01:03,0.02,0.29,0.00,3.22,4.84,8.39,14.96,44.78,1024.94,2116.00,3511.83,3173.53,3600.07,600.06,644.08,5.53,0000 0000 0000 0000 000000
2017-12-04 13:06:04,0.02,0.29,0.00,3.28,4.91,8.45,15.04,44.77,1024.97,2115.98,3511.04,3173.01,3599.47,600.30,644.13,5.59,0000 0000 0000 0000 000000
2017-12-04 13:11:06,-0.00,0.30,0.00,3.34,4.98,8.52,15.04,44.64,1025.18,2115.69,3510.35,3172.45,3598.87,600.22,644.03,5.64,0000 0000 0000 0000 000000
2017-12-04 13:16:07,-0.01,0.29,0.00,3.40,5.05,8.58,15.04,44.81,1025.33,2115.13,3509.83,3172.01,3598.08,599.97,643.63,5.69,0000 0000 0000 0000 000000
2017-12-04 13:21:09,0.04,0.30,0.00,3.46,5.12,8.66,15.03,44.78,1025.38,2115.01,3509.02,3171.44,3597.35,599.98,643.68,5.74,0000 0000 0000 0000 000000
2017-12-04 13:26:10,0.02,0.30,0.00,3.52,5.18,8.72,15.03,44.73,1025.40,2114.96,3508.19,3170.96,3596.56,600.21,643.74,5.79,0000 0000 0000 0000 000000
2017-12-04 13:31:12,-0.01,0.30,0.00,3.58,5.25,8.77,14.95,44.80,1025.40,2114.47,3507.51,3170.26,3595.86,599.96,643.42,5.84,0000 0000 0000 0000 000000
2017-12-04 13:36:13,-0.00,0.30,0.00,3.64,5.32,8.84,15.05,44.64,1025.40,2114.04,3506.92,3169.96,3595.07,599.89,643.23,5.89,0000 0000 0000 0000 000000
2017-12-04 13:41:14,0.04,0.30,0.00,3.70,5.38,8.92,15.10,44.52,1025.40,2114.00,3506.10,3169.23,3594.45,600.16,643.38,5.94,0000 0000 0000 0000 000000
2017-12-04 13:46:16,0.02,0.30,0.00,3.75,5.45,8.98,15.00,44.74,1025.41,2113.91,3505.38,3168.80,3593.66,600.22,643.21,5.99,0000 0000 0000 0000 000000
2017-12-04 13:51:17,-0.03,0.30,0.00,3.82,5.51,9.06,15.00,44.58,1025.42,2113.38,3504.69,3168.07,3592.98,600.35,643.12,6.04,0000 0000 0000 0000 000000
2017-12-04 13:56:18,-0.00,0.30,0.00,3.87,5.58,9.13,14.93,44.47,1025.43,2113.04,3504.01,3167.93,3592.26,599.84,642.65,6.09,0000 0000 0000 0000 000000
2017-12-04 14:01:20,0.04,0.30,0.00,3.93,5.64,9.16,14.93,44.60,1025.43,2113.00,3503.25,3167.14,3591.63,600.12,642.61,6.14,0000 0000 0000 0000 000000
2017-12-04 14:06:21,0.02,0.30,0.00,3.98,5.70,9.25,14.87,44.46,1025.53,2112.95,3502.55,3166.76,3590.90,599.83,642.35,6.19,0000 0000 0000 0000 000000
2017-12-04 14:11:22,-0.01,0.30,0.00,4.02,5.76,9.30,14.86,44.61,1025.57,2112.57,3501.94,3166.04,3590.09,599.65,642.07,6.24,0000 0000 0000 0000 000000
2017-12-04 14:16:23,0.00,0.30,0.00,4.07,5.82,9.39,14.99,44.61,1025.49,2112.12,3501.13,3165.86,3589.55,600.02,642.35,6.29,0000 0000 0000 0000 000000
2017-12-04 14:21:24,0.02,0.30,0.00,4.12,5.88,9.41,14.91,44.61,1025.57,2112.02,3500.44,3165.12,3588.90,600.13,642.40,6.34,0000 0000 0000 0000 000000
2017-12-04 14:26:26,0.01,0.30,0.00,4.17,5.95,9.51,14.97,44.63,1025.58,2111.99,3499.93,3164.89,3588.09,600.24,642.38,6.39,0000 0000 0000 0000 000000
2017-12-04 14:31:27,0.03,0.31,0.00,4.21,6.01,9.56,15.05,44.63,1025.65,2111.84,3499.13,3164.14,3587.51,600.05,642.04,6.44,0000 0000 0000 0000 000000
2017-12-04 14:36:28,-0.05,0.30,0.00,4.26,6.07,9.61,14.97,44.62,1025.73,2111.20,3498.62,3163.97,3586.98,600.13,642.31,6.49,0000 0000 0000 0000 000000
2017-12-04 14:41:29,0.03,0.31,0.00,4.32,6.13,9.68,14.90,44.54,1025.74,2111.02,3498.00,3163.24,3586.16,600.19,642.03,6.54,0000 0000 0000 0000 000000
2017-12-04 14:46:31,0.02,0.31,0.00,4.39,6.19,9.72,14.92,44.53,1025.87,2111.00,3497.25,3162.96,3585.65,600.17,641.99,6.59,0000 0000 0000 0000 000000
2017-12-04 14:51:32,0.03,0.31,0.00,4.43,6.25,9.80,14.91,44.57,1025.89,2111.00,3496.66,3162.31,3585.00,599.84,641.63,6.64,0000 0000 0000 0000 000000
2017-12-04 14:56:34,0.01,0.31,0.00,4.46,6.31,9.88,14.95,44.55,1025.89,2110.90,3496.00,3161.96,3584.20,599.97,641.59,6.69,0000 0000 0000 0000 000000
2017-12-04 15:01:35,-0.03,0.31,0.00,4.50,6.36,9.93,14.84,44.46,1025.89,2110.34,3495.15,3161.83,3583.53,599.59,641.17,6.74,0000 0000 0000 0000 000000
2017-12-04 15:06:36,0.02,0.31,0.00,4.54,6.42,9.97,15.03,44.52,1025.89,2110.06,3494.55,3161.10,3583.01,600.25,641.68,6.79,0000 0000 0000 0000 000000
2017-12-04 15:11:37,0.02,0.31,0.00,4.59,6.48,10.01,14.97,44.55,1025.89,2110.00,3493.91,3160.90,3582.38,600.54,641.93,6.84,0000 0000 0000 0000 000000
2017-12-04 15:16:38,0.03,0.31,0.00,4.64,6.53,10.10,14.91,44.58,1025.89,2109.98,3493.11,3160.18,3581.92,599.91,641.14,6.89,0000 0000 0000 0000 000000
2017-12-04 15:21:40,0.00,0.31,0.00,4.69,6.59,10.15,14.98,44.48,1025.89,2109.82,3492.64,3159.98,3581.11,599.95,641.08,6.94,0000 0000 0000 0000 000000
2017-12-04 15:26:41,-0.01,0.31,0.00,4.74,6.64,10.20,14.86,44.48,1025.89,2109.28,3491.99,3159.41,3580.68,599.69,640.66,6.99,0000 0000 0000 0000 000000
2017-12-04 15:31:42,0.01,0.31,0.00,4.77,6.70,10.24,14.91,44.52,1025.90,2109.02,3491.27,3158.99,3580.02,600.03,640.95,7.04,0000 0000 0000 0000 000000
2017-12-04 15:36:43,0.04,0.31,0.00,4.82,6.75,10.30,14.93,44.47,1025.90,2109.00,3490.65,3158.50,3579.59,599.95,640.64,7.09,0000 0000 0000 0000 000000
2017-12-04 15:41:45,0.01,0.31,0.00,4.87,6.81,10.35,14.97,44.43,1025.96,2109.00,3490.01,3158.02,3579.01,599.87,640.46,7.14,0000 0000 0000 0000 000000
2017-12-04 15:46:46,0.03,0.31,0.00,4.91,6.86,10.42,14.94,44.40,1026.11,2108.95,3489.39,3157.80,3578.40,600.12,640.88,7.19,0000 0000 0000 0000 000000
2017-12-04 15:51:47,0.00,0.32,0.00,4.96,6.91,10.45,14.96,44.46,1026.34,2108.79,3488.97,3157.08,3577.97,600.28,641.13,7.24,0000 0000 0000 0000 000000
2017-12-04 15:56:49,-0.03,0.31,0.00,5.00,6.97,10.51,14.90,44.40,1026.37,2108.20,3488.19,3156.95,3577.26,599.77,640.66,7.29,0000 0000 0000 0000 000000
2017-12-04 16:01:50,0.03,0.32,0.00,5.04,7.02,10.56,14.93,44.41,1026.37,2108.02,3487.71,3156.20,3576.77,599.71,640.29,7.34,0000 0000 0000 0000 000000
2017-12-04 16:06:51,0.01,0.32,0.00,5.08,7.07,10.61,14.87,44.37,1026.38,2108.00,3487.00,3155.98,3576.05,599.83,640.34,7.39,0000 0000 0000 0000 000000
2017-12-04 16:11:52,0.04,0.32,0.00,5.12,7.13,10.63,14.85,44.38,1026.30,2107.97,3486.32,3155.34,3575.61,600.12,640.58,7.44,0000 0000 0000 0000 000000
2017-12-04 16:16:54,-0.01,0.32,0.00,5.16,7.18,10.68,14.89,44.46,1026.10,2107.72,3485.86,3155.00,3574.99,599.79,639.91,7.49,0000 0000 0000 0000 000000
2017-12-04 16:21:56,-0.00,0.32,0.00,5.19,7.23,10.74,14.93,44.30,1025.99,2107.32,3485.09,3154.66,3574.43,600.14,640.17,7.54,0000 0000 0000 0000 000000
2017-12-04 16:26:57,0.01,0.32,0.00,5.23,7.28,10.79,14.86,44.28,1025.96,2107.04,3484.59,3154.05,3573.97,599.79,639.72,7.59,0000 0000 0000 0000 000000
2017-12-04 16:31:58,0.02,0.32,0.00,5.27,7.33,10.81,14.86,44.34,1025.95,2107.00,3483.99,3153.88,3573.24,599.95,639.67,7.64,0000 0000 0000 0000 000000
2017-12-04 16:37:00,0.03,0.32,0.00,5.31,7.38,10.89,15.02,44.37,1025.95,2107.00,3483.36,3153.13,3572.94,600.07,639.75,7.69,0000 0000 0000 0000 000000
2017-12-04 16:42:01,0.01,0.32,0.00,5.35,7.42,10.94,14.85,44.27,1025.95,2106.91,3482.80,3152.91,3572.11,599.94,639.57,7.74,0000 0000 0000 0000 000000
2017-12-04 16:47:03,-0.01,0.32,0.00,5.39,7.47,10.98,14.88,44.32,1025.92,2106.54,3482.07,3152.19,3571.85,599.90,639.35,7.79,0000 0000 0000 0000 000000
2017-12-04 16:52:04,-0.01,0.32,0.00,5.43,7.52,11.01,14.92,44.40,1025.92,2106.15,3481.81,3152.00,3571.13,599.84,639.35,7.84,0000 0000 0000 0000 000000
2017-12-04 16:57:05,0.02,0.32,0.00,5.46,7.57,11.06,14.82,44.32,1025.94,2106.02,3481.07,3151.66,3570.83,599.93,639.29,7.90,0000 0000 0000 0000 000000